Wind_Speed
14 15 15 16 16 16 16 16 16 16 16 16 17 18 19 19 19 19 20 21 21 21 20 20 19 19 19 19 20 20 20 20 20 20 21 21 20 20
16 16 17 17 17 17 18 18 19 18 17 17 18 18 19 19 20 21 21 22 23 22 22 21 21 21 20 20 20 21 22 22 22 22 21 21 22 21
17 17 18 18 18 18 19 19 19 20 19 19 20 21 22 22 22 22 23 24 24 23 23 22 22 22 22 22 22 23 23 23 23 23 22 23 23 22
18 18 19 19 19 20 20 20 21 21 21 22 22 22 23 24 24 24 25 25 25 25 24 24 23 23 23 23 23 23 23 23 23 23 23 23 24 24
19 20 20 20 20 20 21 22 23 23 24 24 24 24 24 25 25 26 26 26 26 26 26 25 24 24 24 24 24 24 24 24 25 25 24 24 25 25
20 21 21 21 22 22 23 23 24 24 25 25 24 24 25 25 26 26 26 27 27 27 27 26 26 25 26 25 25 25 26 26 26 27 27 26 26 27
21 21 22 22 23 24 24 24 24 25 25 25 25 25 25 25 26 27 27 27 27 27 28 28 28 28 28 27 28 28 28 28 28 28 28 28 28 28
22 22 23 23 23 24 24 24 24 25 25 25 25 25 25 26 27 28 27 27 26 27 29 29 30 30 30 30 30 30 29 29 29 29 29 29 30 30
23 23 23 23 24 24 24 24 25 26 27 26 26 26 27 27 27 28 28 28 28 28 29 29 30 30 31 31 31 31 30 30 30 30 31 31 31 31
23 23 23 23 23 23 24 24 25 26 27 27 27 27 28 28 28 29 29 29 29 29 30 30 30 30 31 31 31 31 31 30 30 31 31 31 31 31
24 24 24 24 24 24 25 25 25 25 25 26 27 28 29 29 29 29 29 29 29 29 30 30 30 31 31 31 32 32 31 31 30 30 30 30 29 30
25 25 24 24 25 26 27 26 26 26 26 27 28 29 29 30 29 29 30 29 30 30 30 31 31 31 31 32 32 31 31 30 30 30 30 29 28 28
25 25 25 26 26 26 27 27 27 27 27 28 29 29 29 30 30 30 30 30 30 30 31 31 31 31 31 31 31 31 30 30 31 30 30 29 29 28
25 25 26 26 27 27 26 27 28 28 29 29 29 30 30 31 31 31 31 31 31 31 30 30 30 31 31 31 31 31 30 30 30 30 30 30 30 29
25 25 26 26 26 26 26 27 28 29 30 30 30 30 30 30 30 31 31 31 31 30 30 30 30 30 30 31 31 31 31 30 30 30 29 29 29 30
25 25 25 25 26 27 27 28 29 29 29 29 29 30 31 30 30 30 30 30 30 30 30 30 30 30 30 29 30 30 31 31 31 31 30 29 29 29
26 26 26 26 27 27 28 29 29 29 30 30 30 30 30 29 29 29 29 30 29 29 29 29 29 29 29 29 29 29 30 31 31 31 30 29 28 28
26 27 27 27 27 28 29 29 29 29 29 30 30 30 30 29 29 29 29 29 28 28 28 28 28 28 28 27 28 28 29 29 30 30 30 30 29 30
28 27 28 28 29 29 29 29 29 28 29 29 29 29 28 28 28 28 28 28 27 27 27 27 28 27 27 26 27 28 28 29 29 29 29 29 29 30
28 28 28 28 28 28 28 28 28 28 28 29 29 27 26 26 26 26 27 27 27 27 27 28 28 28 28 27 27 27 28 28 28 28 28 28 28 28
28 27 28 28 28 27 27 27 27 28 28 28 27 26 26 25 25 25 26 26 27 27 27 28 29 29 28 28 28 28 28 28 28 27 27 27 27 27
27 27 27 28 27 27 27 27 27 27 27 27 26 26 26 25 25 25 26 27 27 27 27 28 28 29 28 28 28 28 28 29 29 28 27 27 27 26
27 27 28 27 27 27 27 27 27 27 26 26 26 26 26 26 26 26 27 27 27 27 27 27 28 28 28 28 28 28 28 28 28 28 28 28 27 26
Wind_Direction
276 276 276 276 274 275 275 275 276 274 272 272 273 272 270 269 270 271 270 270 271 273 273 272 273 273 272 269 268 269 269 269 269 269 268 269 270 269
278 276 275 276 275 274 274 276 275 273 271 271 273 272 272 272 272 272 271 270 270 273 274 273 273 272 272 270 269 268 268 269 270 269 270 270 270 268
279 278 277 277 277 275 275 275 275 275 274 273 273 271 271 271 272 272 272 272 272 274 276 275 273 273 273 272 269 270 269 269 270 269 268 269 268 268
278 278 278 278 278 277 275 275 275 274 274 274 273 274 272 273 272 271 272 272 272 272 273 274 275 273 272 271 271 270 270 270 270 268 267 268 268 267
278 276 276 277 278 278 277 276 276 275 275 275 274 275 275 273 272 272 272 271 271 270 271 272 272 271 270 270 270 270 271 270 269 268 268 268 268 268
280 278 277 277 276 277 277 277 276 276 275 276 275 276 274 273 272 272 273 270 269 269 269 270 271 270 269 269 268 269 271 271 270 269 268 268 268 268
283 281 279 279 278 278 277 276 275 276 276 276 275 276 276 274 273 273 275 272 269 268 268 269 270 270 269 269 268 269 269 270 271 270 269 268 269 268
284 283 281 279 281 282 280 278 276 276 276 276 277 276 275 276 276 274 275 272 270 270 270 270 270 270 270 270 270 268 268 270 271 272 270 270 269 268
286 284 282 280 280 281 281 280 279 277 276 277 276 276 275 276 276 276 275 272 270 269 270 269 268 269 268 268 267 267 267 268 270 272 272 270 269 268
288 285 282 280 282 283 283 282 281 278 276 276 277 276 276 278 278 279 277 273 272 272 272 271 269 268 267 267 266 267 267 267 269 270 270 269 269 268
290 286 283 281 282 283 283 283 281 279 277 277 278 277 277 279 280 278 277 274 272 271 272 272 271 270 269 267 266 266 266 266 267 268 268 268 269 268
289 288 287 285 282 282 283 283 282 281 279 279 279 279 278 279 280 278 276 275 273 271 270 270 270 269 268 267 265 265 265 266 266 267 268 269 269 270
290 288 287 287 283 284 284 283 282 282 280 280 279 279 278 278 278 277 275 274 273 272 271 269 268 268 266 266 265 265 265 266 266 267 268 268 268 269
290 289 288 287 285 284 284 283 283 283 284 284 283 282 282 280 278 276 274 271 271 271 270 270 269 268 267 266 265 265 266 266 265 266 267 267 267 268
290 288 287 287 286 285 284 284 285 284 285 285 285 284 284 281 278 276 274 272 271 271 270 269 269 270 269 268 266 264 264 264 264 264 264 264 266 266
292 289 289 288 287 287 286 285 285 285 285 285 285 285 284 281 278 276 274 272 272 273 272 270 270 270 270 269 268 266 264 264 265 265 266 267 268 267
294 292 290 289 288 288 287 286 285 285 285 285 283 283 282 281 279 277 274 272 272 273 273 272 270 269 269 268 268 267 266 264 263 264 266 267 265 264
293 291 289 289 288 287 288 288 287 286 285 285 284 282 281 280 279 277 275 273 271 271 272 272 270 269 269 270 270 269 267 267 266 264 263 263 264 266
294 292 291 290 289 289 289 288 288 288 287 286 285 283 282 280 278 276 273 272 271 270 271 271 271 271 272 272 272 270 270 269 268 266 264 264 265 265
293 293 293 294 291 289 289 289 288 288 288 287 285 283 282 281 278 275 273 271 271 271 271 271 272 273 272 272 271 271 272 273 270 268 266 265 265 265
291 291 292 292 292 291 291 291 290 290 289 287 286 283 281 280 278 275 273 272 272 272 272 271 272 272 272 273 272 270 272 273 272 270 269 268 267 266
292 291 291 292 293 294 294 293 293 293 291 289 287 285 281 279 278 277 276 275 274 274 274 273 272 272 272 272 273 272 272 272 272 270 269 269 269 268
293 292 291 292 293 294 294 294 293 292 291 289 286 285 283 281 278 278 278 277 276 277 276 275 273 273 274 274 274 274 273 273 272 271 270 269 268 268
Height
5848 5847 5846 5846 5845 5844 5844 5844 5844 5843 5843 5842 5841 5840 5840 5840 5840 5840 5840 5839 5839 5839 5838 5838 5837 5836 5836 5835 5834 5834 5834 5833 5833 5832 5832 5832 5831 5831
5843 5842 5841 5841 5840 5839 5839 5838 5838 5838 5837 5837 5836 5835 5835 5834 5834 5834 5834 5833 5833 5833 5832 5832 5831 5830 5829 5829 5828 5828 5828 5827 5826 5826 5826 5825 5825 5825
5838 5837 5836 5835 5834 5834 5833 5832 5832 5831 5831 5831 5830 5829 5829 5828 5828 5827 5827 5827 5826 5826 5825 5825 5824 5824 5823 5823 5822 5822 5821 5821 5820 5819 5819 5819 5819 5818
5832 5831 5830 5829 5828 5828 5827 5826 5826 5825 5825 5824 5823 5822 5822 5821 5821 5821 5820 5820 5820 5819 5818 5818 5817 5817 5816 5816 5815 5815 5814 5814 5813 5813 5812 5812 5812 5811
5826 5825 5824 5823 5822 5821 5820 5820 5819 5818 5818 5817 5816 5815 5814 5814 5813 5813 5812 5812 5812 5812 5811 5811 5810 5810 5809 5809 5808 5807 5807 5807 5806 5806 5805 5805 5805 5804
5820 5818 5817 5816 5815 5814 5813 5812 5811 5810 5810 5809 5808 5808 5807 5806 5805 5804 5804 5804 5804 5803 5803 5803 5802 5802 5802 5801 5800 5800 5799 5799 5798 5798 5798 5797 5797 5797
5813 5812 5810 5809 5808 5807 5806 5805 5804 5803 5802 5801 5800 5800 5799 5798 5797 5796 5795 5795 5795 5795 5794 5794 5794 5794 5793 5793 5792 5792 5791 5791 5790 5790 5789 5789 5789 5788
5806 5805 5803 5802 5801 5799 5798 5797 5796 5795 5794 5793 5792 5792 5791 5790 5789 5788 5787 5786 5786 5787 5786 5786 5785 5785 5784 5784 5784 5783 5783 5782 5782 5781 5781 5780 5780 5780
5799 5797 5795 5794 5793 5791 5790 5788 5787 5786 5786 5785 5784 5783 5782 5781 5780 5779 5778 5777 5777 5777 5777 5777 5776 5776 5775 5775 5774 5774 5773 5773 5773 5772 5772 5771 5771 5770
5791 5789 5787 5786 5785 5784 5782 5780 5779 5778 5777 5776 5775 5774 5773 5772 5771 5770 5769 5768 5767 5767 5767 5767 5767 5766 5766 5765 5765 5764 5764 5764 5764 5763 5763 5762 5762 5761
5784 5782 5780 5779 5777 5776 5774 5773 5771 5769 5768 5767 5766 5765 5764 5762 5761 5760 5759 5758 5757 5757 5757 5756 5757 5756 5756 5756 5755 5755 5755 5755 5754 5754 5754 5753 5752 5752
5776 5774 5772 5771 5769 5767 5766 5764 5763 5761 5760 5759 5757 5756 5754 5753 5751 5750 5749 5748 5748 5747 5747 5747 5746 5746 5747 5746 5745 5745 5745 5745 5745 5745 5745 5744 5744 5743
5767 5766 5764 5762 5761 5759 5757 5756 5754 5753 5751 5750 5748 5747 5745 5744 5742 5741 5740 5739 5738 5738 5737 5737 5737 5736 5737 5737 5736 5736 5736 5736 5736 5736 5736 5735 5735 5735
5760 5758 5756 5754 5752 5751 5749 5747 5746 5744 5742 5741 5739 5737 5736 5734 5732 5731 5730 5729 5728 5728 5727 5727 5727 5727 5727 5727 5727 5727 5727 5727 5727 5727 5727 5727 5726 5726
5752 5749 5747 5745 5744 5742 5741 5739 5737 5735 5733 5731 5729 5727 5725 5724 5722 5721 5720 5719 5718 5718 5717 5717 5717 5717 5717 5717 5717 5717 5718 5717 5718 5718 5718 5718 5717 5717
5744 5741 5739 5737 5736 5734 5732 5730 5728 5726 5724 5722 5720 5718 5715 5714 5712 5711 5710 5709 5709 5708 5708 5708 5707 5707 5707 5707 5707 5707 5707 5708 5708 5708 5708 5708 5708 5708
5736 5733 5731 5729 5727 5725 5723 5721 5719 5717 5714 5712 5710 5708 5706 5704 5703 5701 5700 5700 5699 5699 5699 5698 5698 5698 5698 5698 5698 5698 5698 5698 5698 5699 5699 5699 5699 5699
5728 5725 5723 5721 5718 5716 5714 5712 5709 5707 5705 5703 5700 5698 5696 5695 5693 5692 5691 5690 5690 5690 5690 5689 5689 5689 5689 5689 5689 5689 5688 5688 5689 5689 5689 5690 5690 5690
5720 5717 5715 5712 5710 5707 5705 5703 5700 5698 5696 5693 5691 5689 5687 5685 5683 5682 5682 5681 5681 5681 5681 5681 5680 5680 5680 5680 5680 5679 5679 5679 5679 5679 5679 5680 5681 5681
5711 5709 5706 5704 5701 5698 5696 5694 5691 5689 5687 5684 5682 5680 5678 5676 5674 5673 5673 5673 5673 5673 5672 5672 5671 5671 5671 5671 5671 5671 5670 5670 5670 5670 5670 5670 5670 5671
5702 5700 5698 5695 5693 5690 5687 5685 5682 5680 5677 5675 5673 5671 5669 5668 5666 5665 5665 5664 5664 5664 5663 5663 5662 5662 5662 5662 5662 5661 5661 5660 5660 5660 5660 5660 5661 5661
5694 5692 5689 5687 5684 5681 5679 5676 5674 5671 5669 5666 5664 5663 5661 5659 5658 5657 5656 5656 5655 5655 5654 5654 5654 5653 5653 5652 5652 5652 5651 5651 5650 5650 5650 5651 5651 5651
5686 5683 5681 5678 5675 5673 5670 5668 5665 5663 5660 5658 5656 5655 5653 5651 5650 5649 5648 5647 5647 5646 5645 5645 5644 5644 5644 5643 5643 5642 5642 5641 5640 5640 5640 5640 5641 5641